Theta_e
297 297 298 298 298 299 298 300 296 298 299 303 309 310 314 318 320 320 321 322 323 323 325 326 325 324 323 325 326 328 328 329 331 333 334 333 332 332 332 332 332 332 332 331
293 297 297 296 298 299 300 300 300 300 301 308 311 312 313 316 319 320 320 322 322 324 325 325 324 323 323 324 325 328 327 328 330 330 331 332 332 332 332 332 332 331 331 331
290 296 296 293 298 299 300 302 302 298 303 310 310 311 314 317 319 320 322 322 323 324 326 326 325 323 323 324 325 326 327 327 328 329 330 331 331 331 331 332 334 332 332 332
291 295 287 299 304 305 301 301 303 304 306 308 309 311 314 316 317 321 323 324 324 326 327 327 325 324 324 325 323 324 326 326 328 328 330 331 332 331 333 334 334 333 333 333
292 291 297 298 300 301 302 298 304 304 306 308 310 311 315 317 321 323 326 327 327 328 329 328 325 324 323 323 322 322 323 326 327 328 329 329 330 333 334 334 334 333 333 333
294 289 288 296 301 305 306 297 304 306 306 307 309 304 312 315 317 322 326 329 328 329 329 327 326 325 324 322 321 321 322 326 328 329 329 329 332 332 335 334 332 331 332 334
292 293 294 299 302 306 297 297 305 306 307 308 307 310 314 317 318 320 325 329 330 330 328 327 326 325 323 322 321 322 323 326 328 330 331 332 334 333 334 332 331 331 332 333
293 290 287 302 301 298 299 305 305 307 307 308 310 312 314 316 318 320 324 328 329 328 328 328 327 325 323 322 323 323 322 324 327 330 329 331 334 332 332 331 331 331 332 331
289 290 300 303 302 305 305 305 305 306 307 309 310 312 314 315 318 321 323 327 329 329 327 327 327 325 323 324 323 323 323 323 326 329 330 332 332 331 328 329 327 328 328 328
291 296 299 302 304 304 305 305 306 307 307 309 310 313 314 316 317 321 323 327 329 329 326 326 327 325 325 326 324 323 323 324 325 327 329 331 330 329 327 325 323 324 326 327
292 298 300 302 303 304 304 305 305 307 308 308 310 312 314 315 320 322 324 326 329 328 327 326 327 326 326 325 324 323 324 324 324 324 328 329 330 329 327 329 322 322 323 326
290 297 297 301 304 304 303 304 306 306 306 308 310 311 314 315 320 324 326 326 328 329 328 327 327 326 326 325 324 324 324 324 322 321 323 327 329 329 297 304 305 303 304 314
296 301 302 304 305 306 305 306 307 307 307 306 309 312 314 315 317 318 327 327 326 328 329 328 327 327 327 326 324 324 328 328 323 317 321 321 324 327 326 316 302 300 301 302
303 302 300 302 302 305 306 307 308 308 308 308 309 312 313 315 316 317 323 327 328 327 329 329 328 327 329 327 325 325 329 308 325 321 321 320 322 323 324 324 324 325 303 308
301 303 303 304 305 305 306 306 306 306 308 308 310 310 312 313 313 315 320 327 329 329 327 329 328 328 330 329 327 325 326 323 324 323 322 318 321 322 322 323 322 323 324 306
300 301 303 303 303 304 304 305 304 305 306 307 308 310 311 313 313 315 318 322 328 326 327 327 328 329 330 330 330 328 327 312 315 322 322 321 321 321 320 321 322 323 323 325
299 299 301 302 302 303 303 304 305 305 305 306 307 309 310 312 313 314 316 319 326 330 330 329 328 330 330 330 333 328 327 325 315 322 321 321 320 321 321 321 320 321 323 322
303 303 304 304 304 304 304 305 306 307 307 307 308 308 309 310 312 313 315 318 323 331 331 331 331 330 330 330 331 329 329 327 323 322 322 321 321 321 321 321 321 321 322 319
304 303 304 304 304 304 305 305 305 307 308 309 308 307 309 310 312 314 316 316 319 330 333 334 312 318 331 326 323 329 328 327 325 324 323 314 321 321 320 321 321 322 322 321
303 304 303 303 305 305 303 304 305 305 306 309 309 308 308 309 311 313 315 315 320 330 330 333 331 331 330 325 307 329 328 327 326 324 324 324 323 323 322 311 320 321 321 322
303 303 303 302 302 303 303 305 304 303 303 305 306 308 308 310 311 312 313 313 320 323 323 317 329 331 329 323 320 327 328 328 327 326 325 325 325 325 324 325 323 323 322 323
304 303 303 302 301 303 303 305 303 303 304 302 303 308 309 309 310 311 314 315 319 298 317 327 333 303 318 298 327 325 328 328 328 328 326 326 325 326 326 327 326 326 326 326
304 304 304 303 302 303 304 304 304 302 301 301 301 302 307 310 311 309 309 317 320 308 318 318 304 290 288 321 328 326 328 328 328 327 327 327 327 326 326 326 328 328 329 328
304 304 304 305 305 302 302 305 304 305 301 302 303 303 303 304 311 313 314 308 299 303 315 314 307 292 287 329 331 330 328 328 329 328 325 309 325 325 325 326 327 328 329 324
305 305 305 305 304 302 303 304 304 305 303 301 301 301 302 305 305 312 313 314 302 306 317 302 292 292 317 325 330 330 330 329 329 329 328 326 326 326 324 326 327 328 328 328
305 304 305 306 304 302 301 303 300 303 300 298 299 300 300 302 306 307 313 307 314 308 315 316 316 321 325 326 327 330 330 330 328 327 324 328 328 330 330 329 327 326 326 327
304 296 303 304 305 304 303 303 301 299 299 298 296 299 299 299 302 303 304 314 315 315 316 317 317 315 325 327 329 328 331 330 318 328 329 330 331 330 329 327 325 323 323 325
Wind_Speed
15 6 8 24 26 23 24 21 16 12 19 18 6 6 11 4 12 16 18 19 19 18 17 16 15 14 13 12 11 10 9 9 8 6 7 9 9 8 7 7 6 7 8 7
15 12 8 14 26 24 25 23 16 11 13 7 2 4 6 1 12 15 17 18 19 19 18 17 16 15 13 12 12 11 10 10 8 8 9 9 9 9 8 7 7 7 6 7
16 12 6 12 20 22 22 21 18 19 17 13 9 11 12 10 9 12 17 18 20 20 18 16 16 15 14 13 13 12 11 11 10 9 10 10 10 10 8 8 7 7 8 7
16 11 12 12 6 7 6 8 8 8 10 9 9 11 14 11 13 13 13 17 19 17 17 16 16 16 14 14 14 13 12 12 11 11 11 10 10 10 8 7 7 6 5 7
9 13 17 11 8 2 1 8 9 7 10 11 11 12 6 14 16 6 10 11 13 17 18 17 17 16 16 15 14 14 13 12 12 11 11 10 10 9 8 8 7 5 6 8
9 15 9 9 9 5 6 7 10 9 10 12 12 9 10 14 11 8 6 10 14 17 18 18 17 17 16 16 15 14 14 14 13 12 11 10 10 9 8 8 7 6 6 8
5 5 7 9 9 8 9 8 7 9 10 11 9 9 16 13 10 8 9 12 16 18 17 18 18 18 17 16 15 14 14 13 13 12 11 9 9 8 7 7 8 6 7 8
5 4 6 13 3 2 6 5 8 9 11 11 11 11 12 11 10 8 6 14 17 17 17 18 19 18 17 17 15 15 14 14 13 11 9 9 9 8 8 8 8 8 9 8
5 4 5 8 12 10 7 7 8 10 11 12 12 12 12 11 9 7 7 13 16 17 18 17 19 19 19 17 17 16 15 14 13 13 10 11 10 10 8 8 7 8 8 8
2 5 7 9 8 11 10 11 12 11 11 12 14 14 13 12 9 8 6 12 15 18 19 19 19 19 18 18 18 17 16 15 13 13 12 11 10 9 8 7 7 7 8 8
3 8 5 2 10 14 12 13 13 14 12 13 14 14 15 13 10 7 7 10 14 17 18 20 19 19 18 19 19 17 16 15 14 12 12 11 10 9 9 8 6 7 7 8
3 7 8 11 13 13 12 15 16 15 16 14 13 14 15 13 13 10 8 9 13 16 17 20 20 20 19 20 19 18 17 14 13 12 12 11 11 8 8 8 8 6 1 3
7 12 14 14 9 11 16 16 15 16 16 15 14 13 14 13 14 15 8 7 13 17 19 19 20 21 20 21 21 20 15 15 13 12 12 12 11 11 10 3 7 4 1 1
11 9 11 10 14 15 15 16 13 15 13 13 14 13 13 13 12 14 13 9 11 13 16 19 20 22 22 21 21 21 19 15 13 14 12 12 12 11 10 11 11 9 6 7
11 10 11 12 13 14 13 14 16 14 13 14 14 13 13 15 15 15 15 12 8 13 16 19 20 21 22 22 22 22 18 15 15 13 13 13 12 11 11 11 11 11 11 6
13 13 11 11 12 13 14 14 14 15 15 15 15 15 16 15 15 15 14 15 11 8 14 17 19 20 23 23 21 18 18 17 16 13 13 13 12 12 12 12 11 11 11 11
7 11 15 15 13 14 15 14 15 15 15 15 15 16 16 16 14 14 15 15 15 10 12 14 17 17 20 22 21 17 16 16 17 14 14 14 14 13 13 12 12 12 11 11
6 8 9 10 13 13 14 14 15 17 16 16 16 15 16 14 14 14 15 17 16 12 7 12 13 16 18 20 20 17 16 16 17 17 14 14 14 14 14 14 14 13 12 11
11 11 10 12 12 13 14 14 15 17 18 17 15 15 15 15 14 14 13 15 15 12 8 7 8 9 16 18 17 16 16 17 17 16 16 14 13 14 14 15 14 14 13 13
14 14 14 12 12 12 12 12 14 15 16 16 16 15 15 14 13 14 13 12 13 8 13 11 9 10 15 14 14 15 17 18 18 16 16 16 15 15 15 16 16 15 14 14
13 14 15 16 13 13 13 14 13 13 15 15 15 16 15 14 14 14 13 9 9 9 13 9 7 4 9 9 12 16 16 16 16 15 15 15 15 14 15 14 15 15 14 14
12 13 15 15 11 12 12 13 15 17 17 14 16 16 16 15 15 14 14 12 9 4 9 9 6 9 8 9 9 15 15 14 13 12 12 12 12 10 11 12 14 13 14 13
11 11 12 14 13 12 14 14 16 15 15 15 14 15 16 14 12 12 10 11 6 5 10 10 7 3 5 9 10 13 13 12 13 13 13 13 11 11 10 9 10 11 12 12
9 10 10 10 12 13 14 15 16 16 15 15 16 14 10 12 14 11 12 12 15 10 7 9 8 7 6 7 7 9 10 10 11 11 9 12 12 13 10 13 13 13 12 11
10 12 12 13 13 12 16 16 14 16 16 15 15 15 18 11 12 14 13 12 10 8 9 8 6 6 6 9 7 8 9 11 13 13 12 7 9 10 10 11 14 12 11 10
8 7 8 11 9 8 8 10 10 11 11 12 12 13 12 12 14 15 16 15 15 11 10 9 8 5 7 10 12 12 9 9 7 10 12 12 12 11 10 11 9 12 12 8
6 5 7 6 8 9 9 10 9 10 10 12 14 13 13 13 13 14 19 15 13 11 10 8 6 6 7 9 9 12 11 9 9 11 11 11 12 11 11 11 10 8 6 9
Wind_Direction
260 333 280 199 198 195 194 215 218 198 231 246 249 340 5 145 165 155 153 157 159 162 160 156 163 161 162 162 158 158 153 145 130 129 136 143 142 148 147 159 151 138 138 131
245 236 261 204 196 196 206 213 218 229 241 238 277 337 346 155 177 168 165 160 164 165 160 163 165 166 162 162 156 159 154 137 137 137 136 137 141 142 147 133 136 136 136 132
229 201 223 183 185 194 210 215 223 224 236 15 337 338 340 353 210 193 173 167 170 167 164 165 167 166 165 161 160 160 160 145 144 144 139 144 144 143 137 143 136 135 141 142
215 178 206 80 32 279 164 61 349 287 303 332 322 323 310 287 275 210 193 176 172 167 164 167 167 166 166 162 165 165 163 157 151 152 142 141 146 137 142 148 143 140 148 133
214 193 109 129 47 79 304 73 27 346 324 326 325 309 78 17 2 214 189 192 182 167 164 165 168 165 169 167 171 168 166 163 162 154 150 146 134 141 149 154 138 134 138 147
198 189 195 55 336 236 229 133 23 356 350 343 335 253 96 357 348 325 232 199 180 175 163 166 170 168 171 173 175 173 170 169 169 159 156 153 134 138 149 153 146 141 134 126
197 139 97 9 347 144 209 62 359 357 3 355 350 328 317 320 326 305 267 195 180 174 174 167 168 170 178 176 180 176 169 170 172 168 166 156 143 143 147 164 135 134 111 125
298 129 123 354 99 332 38 39 9 358 4 356 342 328 328 327 322 311 257 196 183 176 173 172 171 174 181 179 180 176 170 172 171 170 186 162 159 152 150 142 148 145 138 148
7 71 70 58 70 60 22 11 14 354 355 350 348 348 342 339 328 317 275 196 183 180 172 178 177 181 181 178 180 175 173 174 171 175 187 162 166 162 157 168 156 160 160 142
243 355 84 69 52 32 9 359 354 351 349 349 347 356 353 344 339 321 287 204 187 186 179 178 184 188 186 176 182 175 176 176 175 181 179 175 179 175 174 177 172 174 165 154
55 36 140 72 21 0 349 346 349 348 348 351 348 353 358 349 348 332 307 213 196 196 185 180 184 190 187 180 181 178 178 178 180 185 187 179 199 183 186 182 186 180 171 163
14 340 320 323 341 343 342 339 338 339 339 345 348 349 352 353 347 346 319 277 210 202 191 187 184 188 187 184 183 182 183 182 184 185 183 189 191 177 59 29 124 65 2 210
306 317 311 306 316 349 329 326 333 325 325 331 339 345 347 347 353 329 317 240 246 211 204 193 188 188 188 187 183 186 192 184 183 197 182 194 193 192 189 142 72 114 40 225
303 320 310 339 328 321 325 326 319 317 319 329 330 337 342 343 345 346 345 323 285 223 216 203 196 194 188 190 187 188 190 182 195 195 188 192 193 197 199 192 195 194 198 212
341 325 306 308 305 320 326 328 321 319 326 325 330 331 338 338 342 340 338 334 291 266 223 210 201 201 192 191 190 192 187 189 199 189 195 195 189 196 200 198 192 195 177 177
316 316 317 322 321 327 327 323 322 321 319 321 320 326 329 326 329 331 339 339 333 260 235 224 209 203 197 193 192 193 193 192 191 196 195 194 198 196 199 202 200 204 201 187
323 319 324 320 329 324 320 317 314 313 312 309 313 314 315 317 319 330 333 340 325 301 274 243 219 212 203 195 190 193 190 184 187 204 200 195 201 201 200 200 204 206 208 196
359 3 358 319 312 316 318 318 316 312 308 309 306 305 305 309 315 320 325 330 326 311 258 249 238 220 209 198 196 203 191 185 187 204 197 198 203 203 205 207 206 206 206 193
1 4 0 2 354 333 321 326 325 320 310 303 301 299 299 300 303 309 317 322 324 327 25 324 331 276 229 202 195 213 194 191 183 200 205 200 193 203 203 209 211 211 209 202
2 1 354 353 0 351 338 334 332 321 311 302 298 295 291 292 298 304 308 309 306 341 339 301 306 245 230 208 184 214 206 196 190 194 202 202 203 205 207 206 208 210 212 219
359 356 356 1 354 342 345 336 336 330 333 321 304 294 289 291 290 290 290 289 309 351 330 288 296 261 212 221 186 220 219 201 200 195 201 204 203 211 213 214 213 221 215 211
351 357 352 355 349 346 356 352 349 341 332 332 327 304 288 283 283 276 273 273 288 34 332 332 319 33 331 321 218 219 229 197 203 195 196 193 206 211 229 228 229 222 221 224
344 350 350 355 349 339 340 343 348 344 330 331 325 324 315 290 283 286 277 274 286 5 328 312 354 4 296 253 216 212 218 182 200 191 186 179 178 188 194 235 243 245 240 225
337 341 335 348 355 349 336 343 343 351 342 329 327 315 309 307 286 267 268 265 255 263 292 300 307 314 304 266 224 204 195 185 187 204 231 239 161 179 193 184 219 223 221 234
333 331 338 348 358 345 343 335 336 337 344 331 330 325 318 300 284 286 271 270 251 249 269 272 228 229 263 285 266 247 228 211 215 217 216 196 185 175 183 198 202 221 211 204
320 329 330 334 357 339 328 327 333 338 337 331 329 327 316 306 296 278 268 258 263 260 256 262 268 227 240 229 244 255 244 230 219 210 204 201 203 197 200 203 194 198 174 190
312 294 341 338 347 340 336 321 341 342 348 339 326 327 324 312 297 280 277 263 249 244 246 253 254 228 253 264 242 244 232 229 220 220 218 214 210 215 210 203 203 198 160 148